Location: Bartshausen
(51.8454°N, 9.8167°E)
Time: 00:15:22
(UTC+00:00)

H-2A R/B - Pass Details

Date: 08 November 2025
Orbit: 728 x 830 km, 98.3° (Epoch: 04 December)

Event Time Altitude Azimuth Distance (km) Brightness Sun altitude
Rises 05:03:16 0° 2° (N) 3,232 5.2 -13.2°
Reaches altitude 10° 05:07:19 10° 330° (NNW) 2,277 4.1 -12.6°
Enters shadow 05:08:27 11° 317° (NW) 2,185 3.9 -12.4°
